Dewpoint
46 46 45 46 46 47 47 48 48 47 50 52 53 53 53 54 54 47 38 34 43 47 49 39 37 36 38 40 41 43 36 31 31 32 32 36 35 36 36 35 37 39 38 37 53
45 44 44 45 45 45 46 46 47 47 48 50 50 52 53 54 48 40 42 46 47 48 40 35 34 34 32 33 38 39 34 31 33 35 34 35 36 34 33 33 34 34 34 45 57
45 45 45 44 45 46 46 46 47 47 47 48 49 51 52 52 33 23 50 50 49 48 37 36 34 32 31 32 33 35 34 33 34 37 38 37 37 36 34 34 34 33 36 44 55
45 44 44 44 45 46 46 46 47 47 47 47 48 50 51 47 26 31 54 50 52 40 34 34 33 29 27 27 30 29 30 31 34 38 39 36 33 33 34 35 35 34 32 43 53
44 43 44 45 45 46 46 47 48 47 47 48 47 49 48 32 28 36 51 51 40 37 33 30 30 29 23 25 27 30 24 27 31 33 36 37 36 36 33 32 30 24 29 37 49
44 43 44 45 45 46 47 47 49 49 49 47 48 49 39 24 29 36 40 39 38 34 33 34 28 30 25 26 26 24 27 25 26 25 31 35 32 35 37 38 34 32 31 29 40
43 43 44 45 45 47 48 49 50 50 50 48 47 46 36 27 28 31 32 30 35 33 31 36 33 29 27 23 26 24 22 20 20 23 27 29 27 30 33 35 36 35 31 30 31
43 43 44 44 45 47 48 48 51 52 50 48 50 45 31 33 28 30 31 30 34 36 35 35 37 31 28 28 24 20 20 15 19 22 22 27 15 18 28 30 32 33 34 32 29
42 43 44 44 45 47 46 47 48 53 52 50 47 39 27 31 22 26 30 25 31 36 34 31 35 29 27 23 17 22 9 15 15 21 22 26 18 19 25 26 27 29 30 31 30
43 43 43 43 45 46 45 46 42 43 42 41 40 33 26 22 26 28 30 31 30 32 28 29 29 25 24 20 10 10 13 14 13 15 21 22 23 22 24 21 23 25 25 26 27
42 43 43 42 44 43 40 36 30 29 34 32 33 33 30 32 28 25 30 30 28 28 23 27 24 19 17 19 15 16 14 10 11 14 13 11 12 11 11 14 17 15 17 19 19
42 42 42 42 42 42 38 35 36 37 30 33 35 36 37 36 30 30 30 25 24 19 24 22 19 20 22 22 22 19 16 15 15 17 18 15 12 12 11 12 12 11 11 14 19
42 42 41 41 39 38 33 31 36 40 32 27 34 36 31 36 31 30 28 26 22 20 21 19 16 22 21 20 19 17 16 14 15 15 18 15 10 11 9 10 10 11 14 15 16
42 41 40 40 30 34 31 31 36 41 20 11 28 27 26 28 27 27 28 23 22 19 19 20 21 18 18 17 17 15 17 17 17 17 14 10 16 10 7 7 8 10 11 11 15
41 40 39 38 31 25 28 33 40 38 16 11 24 26 26 23 24 23 27 23 20 18 20 16 17 19 19 17 19 14 17 18 18 17 16 9 14 7 10 6 4 4 9 10 14
40 39 38 34 32 30 33 37 36 29 13 23 28 27 24 23 22 22 23 24 21 18 18 18 18 17 17 18 21 19 17 19 18 15 18 9 9 7 9 5 3 4 7 11 15
40 37 35 31 26 31 36 32 30 22 11 23 26 27 23 23 21 20 18 18 17 16 15 15 15 16 18 16 20 20 16 23 23 20 18 7 8 9 13 11 9 11 15 17 16
40 33 32 32 31 35 35 27 11 6 18 23 25 23 20 25 22 24 17 16 23 18 16 14 12 14 17 16 15 18 22 24 18 19 17 15 18 6 9 13 15 16 18 21 21
36 30 29 31 31 37 30 21 14 17 21 21 21 21 23 23 23 23 22 22 25 25 19 15 13 15 16 19 20 21 20 20 24 16 19 18 19 19 21 14 19 21 22 22 23
30 26 25 31 32 34 30 17 20 21 19 20 20 22 20 22 20 21 19 19 19 14 26 22 18 16 15 19 20 21 19 20 26 16 15 17 15 13 17 15 16 20 24 23 25
28 22 27 29 33 28 21 19 20 19 16 16 20 20 21 21 20 22 23 18 15 8 17 19 25 16 18 14 15 20 20 22 23 23 16 14 12 17 16 19 21 19 25 26 26
27 26 29 28 26 19 20 18 16 14 13 13 20 20 19 16 11 19 18 20 12 7 10 14 19 17 16 18 16 16 18 18 20 17 20 20 16 19 21 22 21 22 24 26 30
28 26 28 25 20 18 14 12 13 14 9 8 11 15 19 15 7 11 16 22 11 6 7 11 14 11 9 16 18 19 19 19 19 21 17 18 14 19 19 21 22 25 26 28 29
29 24 27 26 21 17 13 12 12 14 12 13 10 16 16 14 16 10 10 16 16 9 14 17 16 11 4 7 10 6 6 9 14 14 16 17 21 19 23 23 22 24 26 30 29
28 22 19 20 21 17 15 12 10 12 14 16 13 15 15 9 10 11 13 11 10 16 18 13 7 7 5 -3 -3 -1 -2 -4 4 9 8 11 14 18 20 23 27 29 29 30 31
28 25 23 19 16 18 17 16 14 14 14 10 14 8 17 15 14 9 12 12 10 14 12 18 7 9 8 5 3 2 0 2 -0 6 9 8 11 9 21 24 29 31 32 32 33
32 30 28 23 21 19 17 18 15 15 15 13 14 16 12 15 17 16 14 15 17 16 14 15 12 8 3 2 4 2 -5 -11 1 4 9 5 16 24 24 25 26 27 28 28 30
Lifted_Index
15 15 15 15 14 14 13 12 11 10 9 7 6 5 5 5 5 6 7 8 8 8 8 8 8 8 7 6 5 4 4 4 3 3 3 3 3 3 3 3 3 3 3 2 0
15 15 15 15 14 14 12 12 11 11 10 8 6 5 5 4 5 6 7 7 8 8 8 8 8 8 7 6 5 4 4 4 3 3 3 3 3 3 3 3 3 3 3 1 -0
15 15 15 15 14 13 12 12 11 11 10 8 7 5 4 4 4 5 5 6 6 7 8 8 8 8 7 7 6 6 5 4 3 3 3 3 3 3 3 3 3 3 3 1 0
15 15 15 15 14 13 12 11 11 10 10 9 7 5 4 4 5 5 4 4 5 7 8 8 8 8 7 7 7 7 6 5 4 3 3 3 3 3 3 2 2 3 3 2 1
15 15 15 14 13 12 12 11 10 10 9 9 7 6 4 5 6 6 5 4 6 7 8 8 8 8 7 7 7 7 7 6 5 5 4 4 3 3 3 2 2 3 3 2 1
15 15 15 14 13 12 11 10 9 9 8 8 7 6 5 5 6 7 6 6 7 8 8 8 8 8 8 8 8 7 7 7 6 6 6 5 5 4 4 3 2 2 2 2 2
14 14 14 13 12 11 10 9 8 7 7 7 7 6 6 6 6 7 7 7 8 8 8 8 7 7 7 8 8 7 7 6 6 6 7 6 6 5 4 4 3 3 3 3 2
14 14 13 13 12 11 10 9 7 6 6 6 7 7 7 7 7 7 7 8 8 8 7 7 7 7 7 7 6 6 5 4 5 6 7 7 6 6 5 5 5 4 4 4 4
14 14 13 12 12 11 10 8 6 5 5 6 7 7 7 7 8 8 8 7 7 7 7 6 6 6 6 5 4 4 4 3 4 6 7 7 6 5 6 6 6 6 5 5 5
14 13 13 12 11 11 10 9 7 6 6 7 7 7 7 8 8 7 7 7 6 6 5 5 5 5 4 4 3 3 3 3 4 5 6 6 6 6 6 7 7 7 6 6 7
13 13 13 12 12 11 10 9 8 7 7 7 7 7 7 7 7 7 7 6 6 5 5 4 3 3 3 3 3 3 3 3 4 5 6 6 6 5 6 7 7 7 6 7 7
13 13 13 12 12 11 11 9 9 8 7 7 7 6 6 7 7 6 6 6 6 5 5 4 3 3 3 3 3 3 3 3 4 5 5 5 5 5 5 6 6 6 6 6 6
13 13 13 13 12 12 10 10 10 9 6 6 6 6 6 5 5 6 6 6 5 5 4 4 3 3 3 3 3 3 3 3 4 4 5 4 4 4 5 5 5 5 5 5 6
13 13 14 13 12 11 10 10 10 8 5 4 5 6 6 5 5 5 5 5 5 5 4 4 4 4 3 3 3 3 3 3 3 3 3 3 4 4 4 4 4 4 4 5 5
13 13 14 13 12 11 10 9 9 6 4 4 5 6 6 6 5 5 6 6 6 5 5 5 5 4 4 3 3 3 3 3 3 3 3 3 3 4 4 4 3 3 4 5 5
13 13 14 13 12 11 10 9 7 4 3 4 5 6 6 5 5 5 6 6 6 5 5 5 5 5 5 4 4 3 3 2 2 2 2 2 3 3 4 4 3 4 4 5 5
13 14 14 14 12 11 9 7 5 3 3 4 5 5 5 5 5 5 5 5 5 4 4 4 4 5 5 4 4 3 2 1 1 1 1 2 3 3 3 4 4 4 4 5 5
13 14 14 14 13 10 8 6 4 4 5 5 5 5 5 5 5 5 5 5 5 5 4 3 3 4 5 5 4 3 2 2 1 1 1 2 3 3 3 4 5 5 5 4 4
13 13 13 13 13 11 8 6 5 5 6 6 6 5 5 5 5 5 5 5 5 5 4 3 3 4 5 4 4 4 3 2 2 1 1 2 2 3 3 3 4 5 5 4 4
12 12 12 13 12 10 8 6 6 7 8 7 6 5 5 5 6 5 5 5 5 5 5 4 4 5 5 4 4 4 3 3 3 2 1 1 2 2 2 3 4 4 4 4 4
10 10 11 12 11 9 8 7 8 9 9 8 7 6 6 6 6 6 6 6 5 5 5 4 4 5 5 4 4 3 3 3 3 2 2 1 2 3 3 3 3 4 4 5 5
9 9 11 12 10 8 8 8 9 10 10 9 9 8 8 7 6 6 6 6 6 6 5 5 5 4 4 4 4 4 3 3 3 3 3 2 3 4 4 3 3 4 5 5 5
8 9 11 11 9 8 8 9 9 10 10 10 9 9 8 7 7 7 7 7 8 7 7 7 6 5 4 5 5 4 4 4 3 3 3 3 4 5 4 4 4 4 5 5 5
9 9 10 11 10 9 9 8 9 9 9 9 9 9 8 7 7 7 8 9 9 9 9 8 7 6 5 6 6 5 4 4 3 3 3 3 4 5 5 4 4 5 5 5 5
10 10 10 10 10 10 9 8 8 8 9 9 8 8 8 7 7 8 9 10 10 10 9 9 8 7 7 8 8 7 6 5 4 4 4 4 5 6 6 6 5 5 6 6 6
10 11 11 11 10 10 9 8 8 8 8 8 8 8 8 7 7 8 9 10 9 9 9 8 8 8 8 9 9 8 8 7 6 5 5 5 6 7 8 8 7 6 7 6 6
11 11 11 11 10 9 9 8 8 8 8 8 8 8 8 8 8 8 9 9 9 9 8 8 7 7 7 8 8 8 8 9 8 7 6 6 7 8 9 8 8 7 7 6 6